Miscellaneous Local Product
Issued by NWS Hastings, NE

Home | Current Version | Previous Version | Text Only | Print | Product List | Glossary Off
Versions: 1 2 3 4 5 6 7 8 9 10 11 12 13 14 15 16 17 18 19 20 21 22 23 24 25 26 27 28 29 30 31 32 33 34 35 36 37 38 39 40 41 42 43 44 45 46 47 48 49 50

000
AXUS43 KGID 171002
MISGRI

GID CWA HOURLY WEATHER ROUNDUP
NATIONAL WEATHER SERVICE HASTINGS NE
400 AM CST TUE JAN 17 2017

NOTE: "FAIR" INDICATES FEW OR NO CLOUDS BELOW 12,000 FEET WITH NO
SIGNIFICANT WEATHER AND/OR OBSTRUCTIONS TO VISIBILITY.

...SOUTH CENTRAL NEBRASKA...

CITY           SKY/WX    TMP DP  RH WIND       PRES   REMARKS
GRAND ISLAND   CLEAR     23  21  92 NW7         N/A  WCI  15
HASTINGS       CLOUDY    26  21  81 NW9       30.05S WCI  17
KEARNEY        CLOUDY    25  18  74 CALM      30.05F
ORD            CLOUDY    21  15  78 NW8       30.03F WCI  11
YORK           CLEAR     27  23  86 MISG      30.04S
AURORA         CLEAR     25  22  89 NW3       30.04F
LEXINGTON      CLOUDY    26  21  83 W9        30.06S WCI  16
HOLDREGE       CLOUDY    26  22  86 CALM      30.05F
HEBRON         CLOUDY    30  26  84 NW5       30.04F WCI  25

...NEBRASKA PANHANDLE...

CITY           SKY/WX    TMP DP  RH WIND       PRES   REMARKS
CHADRON        CLOUDY     7   3  84 SW8       30.06F WCI  -6
ALLIANCE       CLOUDY    11   7  84 W8        30.05S WCI  -1
SCOTTSBLUFF    CLOUDY    18  12  77 NW8       30.07S WCI   8
SIDNEY         CLOUDY    15  10  80 NW7       30.07S WCI   5

...WESTERN AND NORTH CENTRAL NEBRASKA...

CITY           SKY/WX    TMP DP  RH WIND       PRES   REMARKS
VALENTINE      CLOUDY    13   9  84 SW8       30.05S WCI   2
AINSWORTH      CLOUDY    18  15  89 W8        30.04S WCI   8
ONEILL         CLOUDY    19  16  88 NW7       30.04S WCI  10
BROKEN BOW     CLOUDY    23  17  78 NW9       30.04R WCI  13
IMPERIAL       CLOUDY    24  18  77 SW6       30.08F WCI  17
NORTH PLATTE   CLOUDY    20  17  88 W5        30.06F WCI  13
MCCOOK         CLEAR     26  23  88 W9        30.09F WCI  17

...EASTERN NEBRASKA...

CITY           SKY/WX    TMP DP  RH WIND       PRES   REMARKS
NORFOLK        CLOUDY    19  14  81 NW13      30.02S WCI   6
SO SIOUX CITY  CLOUDY    23  21  92 NW14      30.02R FOG     WCI  11
TEKAMAH        CLOUDY    27  24  89 NW16      30.01S WCI  15
COLUMBUS       CLEAR     23  16  74 CALM      30.04F
ALBION         CLOUDY    19  15  85 NW3       30.03S FOG
OMAHA EPPLEY   CLOUDY    30  26  85 NW13      30.01S WCI  20
OFFUTT AFB     CLOUDY    31  31  99 NW17      29.99F WCI  20
MILLARD        CLOUDY    32  28  85 NW13      30.01S WCI  22
LINCOLN        CLOUDY    30  25  81 NW10      30.04S WCI  21
NEBRASKA CITY  CLOUDY    32  32 100 NW8       29.99F WCI  25
BEATRICE       CLOUDY    32  31  94 NW7       30.02F WCI  26
FALLS CITY     CLOUDY    33  32  96 NW8       30.00F FOG     WCI  26

...NORTHERN KANSAS...

CITY           SKY/WX    TMP DP  RH WIND       PRES   REMARKS
GOODLAND       CLOUDY    25  21  85 W9        30.09S WCI  15
HILL CITY      CLOUDY    32  27  81 NW9       30.10S WCI  24
NORTON         SUNNY     28  21  74 W10       30.07S WCI  19
PHILLIPSBURG   CLEAR     30  25  80 W6        30.09S WCI  24
SMITH CENTER   CLEAR     28  25  86 NW6       30.08S WCI  22
HAYS           PTCLDY    32  28  85 NW10      30.10S WCI  24
RUSSELL        PTCLDY    32  28  85 NW12      30.07S WCI  23
CONCORDIA      CLOUDY    32  29  88 NW7       30.05S WCI  26
SALINA           N/A    N/A N/A N/A MISG        N/A
TOPEKA         CLOUDY    35  31  85 W7        30.03R WCI  29



USA.gov is the U.S. government's official web portal to all federal, state and local government web resources and services.